Location: Casa Rossa
(45.2389°N, 12.2056°E)
Time: 03:01:36
(UTC+00:00)

Cosmos 1544 - Pass Details

Date: 14 July 2020
Orbit: 473 x 490 km, 82.5° (Epoch: 11 August)

Event Time Altitude Azimuth Distance (km) Brightness Sun altitude
Exits shadow 03:00:02 - 206° (SSW) 1,983 5.6 -6.1°
Reaches altitude 10° 03:00:54 10° 210° (SSW) 1,637 5.2 -6.0°
Maximum altitude 03:04:19 42° 282° (WNW) 684 3.5 -5.6°
Drops below altitude 10° 03:07:46 10° 356° (N) 1,651 6.3 -5.1°
Sets 03:09:57 0° 3° (N) 2,535 7.4 -4.8°
